{"data":{"norad_id":45706,"epoch":"2026-06-22T13:47:20.905728Z","epoch_age_seconds":7787690,"freshness":"OLD","line1":"1 45706U 20035BB  26173.57454752  .01631038  21957-2  12966-2 0  9994","line2":"2 45706  53.0191 176.4650 0006299  19.9602 340.1679 16.14350853336485","mean_motion":16.14350853,"eccentricity":0.0006299,"inclination_deg":53.0191,"raan_deg":176.465,"arg_perigee_deg":19.9602,"mean_anomaly_deg":340.1679,"bstar":0.0012966,"rev_number":33648,"period_min":89.19994047911,"perigee_km":230.76899770023,"apogee_km":239.10014526599,"semimajor_km":6613.0715714831,"source":"CELESTRAK","updated_at":"2026-06-23T09:00:37.587955Z"}}